contact:dominique.lefevre@mio.osupytheas.fr, maurice.libes@osupytheas.fr, didier.mallarino@osupytheas.fr
Project:EMSO http://www.emso-fr.org/EMSO-France
Depth: 2436.0 m
Title:EMSO Ligure Ouest : Data MII capteur MICROCAT
DateTime_Computer,Latitude,Longitude,Temperature,Conductivity,Pressure,DateTime_Instrument
DateTime_Computer,Latitude,Longitude,degC,S m-1,dbar,DateTime_Instrument
2023-07-20T00:00:02Z,42.805,6.029,13.3044,4.60148,2470.707,2023-7-20T02:02:19Z
2023-07-20T00:03:05Z,42.805,6.029,13.3044,4.60151,2470.707,2023-7-20T02:05:22Z
2023-07-20T00:06:08Z,42.805,6.029,13.3037,4.60130,2470.693,2023-7-20T02:08:25Z
2023-07-20T00:09:11Z,42.805,6.029,13.3056,4.60137,2470.717,2023-7-20T02:11:29Z
2023-07-20T00:12:15Z,42.805,6.029,13.3036,4.60149,2470.74,2023-7-20T02:14:32Z
2023-07-20T00:15:18Z,42.805,6.029,13.3051,4.60163,2470.717,2023-7-20T02:17:35Z
2023-07-20T00:18:21Z,42.805,6.029,13.3039,4.60157,2470.707,2023-7-20T02:20:38Z
2023-07-20T00:21:24Z,42.805,6.029,13.3039,4.60154,2470.707,2023-7-20T02:23:41Z
2023-07-20T00:24:27Z,42.805,6.029,13.3043,4.60149,2470.707,2023-7-20T02:26:44Z
2023-07-20T00:27:30Z,42.805,6.029,13.3051,4.60150,2470.73,2023-7-20T02:29:47Z
2023-07-20T00:30:33Z,42.805,6.029,13.3042,4.60161,2470.707,2023-7-20T02:32:50Z
2023-07-20T00:33:36Z,42.805,6.029,13.3041,4.60162,2470.67,2023-7-20T02:35:53Z
2023-07-20T00:36:39Z,42.805,6.029,13.3051,4.60149,2470.67,2023-7-20T02:38:56Z
2023-07-20T00:39:42Z,42.805,6.029,13.3054,4.60169,2470.684,2023-7-20T02:41:59Z
2023-07-20T00:42:45Z,42.805,6.029,13.3037,4.60178,2470.693,2023-7-20T02:45:02Z
2023-07-20T00:45:48Z,42.805,6.029,13.3043,4.60137,2470.67,2023-7-20T02:48:06Z
2023-07-20T00:48:52Z,42.805,6.029,13.3045,4.60149,2470.693,2023-7-20T02:51:09Z
2023-07-20T00:51:55Z,42.805,6.029,13.3041,4.60159,2470.624,2023-7-20T02:54:12Z
2023-07-20T00:54:58Z,42.805,6.029,13.3047,4.60140,2470.684,2023-7-20T02:57:15Z
2023-07-20T00:58:01Z,42.805,6.029,13.3045,4.60156,2470.656,2023-7-20T03:00:18Z
2023-07-20T01:01:04Z,42.805,6.029,13.3048,4.60157,2470.67,2023-7-20T03:03:21Z
2023-07-20T01:04:07Z,42.805,6.029,13.3052,4.60145,2470.646,2023-7-20T03:06:24Z
2023-07-20T01:07:10Z,42.805,6.029,13.3058,4.60173,2470.693,2023-7-20T03:09:27Z
2023-07-20T01:10:13Z,42.805,6.029,13.3046,4.60157,2470.684,2023-7-20T03:12:30Z
2023-07-20T01:13:16Z,42.805,6.029,13.3038,4.60150,2470.661,2023-7-20T03:15:33Z
2023-07-20T01:16:19Z,42.805,6.029,13.3046,4.60122,2470.67,2023-7-20T03:18:36Z
2023-07-20T01:19:22Z,42.805,6.029,13.3039,4.60147,2470.656,2023-7-20T03:21:39Z
2023-07-20T01:22:25Z,42.805,6.029,13.3049,4.60144,2470.684,2023-7-20T03:24:42Z
2023-07-20T01:25:28Z,42.805,6.029,13.3056,4.60149,2470.624,2023-7-20T03:27:46Z
2023-07-20T01:28:32Z,42.805,6.029,13.3051,4.60144,2470.646,2023-7-20T03:30:49Z
2023-07-20T01:31:35Z,42.805,6.029,13.3037,4.60132,2470.693,2023-7-20T03:33:52Z
2023-07-20T01:34:38Z,42.805,6.029,13.3036,4.60137,2470.661,2023-7-20T03:36:55Z
2023-07-20T01:37:41Z,42.805,6.029,13.3043,4.60132,2470.67,2023-7-20T03:39:58Z
2023-07-20T01:40:44Z,42.805,6.029,13.3041,4.60138,2470.646,2023-7-20T03:43:01Z
2023-07-20T01:43:47Z,42.805,6.029,13.3076,4.60187,2470.67,2023-7-20T03:46:04Z
2023-07-20T01:46:50Z,42.805,6.029,13.3048,4.60175,2470.684,2023-7-20T03:49:07Z
2023-07-20T01:49:53Z,42.805,6.029,13.3046,4.60168,2470.684,2023-7-20T03:52:10Z
2023-07-20T01:52:56Z,42.805,6.029,13.3041,4.60153,2470.67,2023-7-20T03:55:13Z
2023-07-20T01:55:59Z,42.805,6.029,13.3045,4.60145,2470.624,2023-7-20T03:58:16Z
2023-07-20T01:59:02Z,42.805,6.029,13.3039,4.60146,2470.646,2023-7-20T04:01:19Z
2023-07-20T02:02:06Z,42.805,6.029,13.3042,4.60159,2470.646,2023-7-20T04:04:23Z
2023-07-20T02:05:09Z,42.805,6.029,13.3038,4.60156,2470.661,2023-7-20T04:07:26Z
2023-07-20T02:08:12Z,42.805,6.029,13.3058,4.60166,2470.637,2023-7-20T04:10:29Z
2023-07-20T02:11:15Z,42.805,6.029,13.3051,4.60166,2470.646,2023-7-20T04:13:32Z
2023-07-20T02:14:18Z,42.805,6.029,13.3036,4.60135,2470.637,2023-7-20T04:16:35Z
2023-07-20T02:17:21Z,42.805,6.029,13.3046,4.60161,2470.624,2023-7-20T04:19:38Z
2023-07-20T02:20:24Z,42.805,6.029,13.3040,4.60155,2470.624,2023-7-20T04:22:41Z
2023-07-20T02:23:27Z,42.805,6.029,13.3046,4.60162,2470.646,2023-7-20T04:25:44Z
2023-07-20T02:26:30Z,42.805,6.029,13.3061,4.60119,2470.624,2023-7-20T04:28:47Z
2023-07-20T02:29:33Z,42.805,6.029,13.3042,4.60162,2470.646,2023-7-20T04:31:50Z
2023-07-20T02:32:36Z,42.805,6.029,13.3058,4.60150,2470.646,2023-7-20T04:34:53Z
2023-07-20T02:35:39Z,42.805,6.029,13.3048,4.60145,2470.661,2023-7-20T04:37:56Z
2023-07-20T02:38:42Z,42.805,6.029,13.3035,4.60143,2470.661,2023-7-20T04:41:00Z
2023-07-20T02:41:46Z,42.805,6.029,13.3041,4.60126,2470.637,2023-7-20T04:44:03Z
2023-07-20T02:44:49Z,42.805,6.029,13.3045,4.60143,2470.637,2023-7-20T04:47:06Z
2023-07-20T02:47:52Z,42.805,6.029,13.3042,4.60174,2470.6,2023-7-20T04:50:09Z
2023-07-20T02:50:55Z,42.805,6.029,13.3042,4.60144,2470.624,2023-7-20T04:53:12Z
2023-07-20T02:53:58Z,42.805,6.029,13.3039,4.60164,2470.624,2023-7-20T04:56:15Z
2023-07-20T02:57:01Z,42.805,6.029,13.3043,4.60154,2470.637,2023-7-20T04:59:18Z
2023-07-20T03:00:04Z,42.805,6.029,13.3041,4.60161,2470.614,2023-7-20T05:02:21Z
2023-07-20T03:03:07Z,42.805,6.029,13.3041,4.60148,2470.6,2023-7-20T05:05:24Z
2023-07-20T03:06:10Z,42.805,6.029,13.3043,4.60143,2470.637,2023-7-20T05:08:27Z
2023-07-20T03:09:13Z,42.805,6.029,13.3039,4.60154,2470.646,2023-7-20T05:11:30Z
2023-07-20T03:12:16Z,42.805,6.029,13.3040,4.60140,2470.637,2023-7-20T05:14:33Z
2023-07-20T03:15:19Z,42.805,6.029,13.3042,4.60172,2470.637,2023-7-20T05:17:37Z
2023-07-20T03:18:23Z,42.805,6.029,13.3055,4.60140,2470.646,2023-7-20T05:20:40Z
2023-07-20T03:21:26Z,42.805,6.029,13.3045,4.60142,2470.624,2023-7-20T05:23:43Z
2023-07-20T03:24:29Z,42.805,6.029,13.3044,4.60152,2470.591,2023-7-20T05:26:46Z
2023-07-20T03:27:32Z,42.805,6.029,13.3058,4.60145,2470.6,2023-7-20T05:29:49Z
2023-07-20T03:30:35Z,42.805,6.029,13.3036,4.60160,2470.61,2023-7-20T05:32:52Z
2023-07-20T03:33:38Z,42.805,6.029,13.3043,4.60155,2470.614,2023-7-20T05:35:55Z
2023-07-20T03:36:41Z,42.805,6.029,13.3044,4.60162,2470.637,2023-7-20T05:38:58Z
2023-07-20T03:39:44Z,42.805,6.029,13.3043,4.60133,2470.624,2023-7-20T05:42:01Z
2023-07-20T03:42:47Z,42.805,6.029,13.3032,4.60144,2470.637,2023-7-20T05:45:04Z
2023-07-20T03:45:50Z,42.805,6.029,13.3043,4.60140,2470.624,2023-7-20T05:48:07Z
2023-07-20T03:48:53Z,42.805,6.029,13.3050,4.60137,2470.624,2023-7-20T05:51:10Z
2023-07-20T03:51:56Z,42.805,6.029,13.3050,4.60156,2470.637,2023-7-20T05:54:14Z
2023-07-20T03:55:00Z,42.805,6.029,13.3051,4.60162,2470.6,2023-7-20T05:57:17Z
2023-07-20T03:58:03Z,42.805,6.029,13.3040,4.60162,2470.591,2023-7-20T06:00:20Z
2023-07-20T04:01:06Z,42.805,6.029,13.3055,4.60176,2470.6,2023-7-20T06:03:23Z
2023-07-20T04:04:09Z,42.805,6.029,13.3043,4.60138,2470.6,2023-7-20T06:06:26Z
2023-07-20T04:07:12Z,42.805,6.029,13.3051,4.60147,2470.646,2023-7-20T06:09:29Z
2023-07-20T04:10:15Z,42.805,6.029,13.3041,4.60175,2470.6,2023-7-20T06:12:32Z
2023-07-20T04:13:18Z,42.805,6.029,13.3046,4.60159,2470.637,2023-7-20T06:15:35Z
2023-07-20T04:16:21Z,42.805,6.029,13.3047,4.60170,2470.637,2023-7-20T06:18:38Z
2023-07-20T04:19:24Z,42.805,6.029,13.3046,4.60165,2470.614,2023-7-20T06:21:41Z
2023-07-20T04:22:27Z,42.805,6.029,13.3048,4.60148,2470.6,2023-7-20T06:24:44Z
2023-07-20T04:25:30Z,42.805,6.029,13.3041,4.60135,2470.646,2023-7-20T06:27:47Z
2023-07-20T04:28:33Z,42.805,6.029,13.3048,4.60170,2470.624,2023-7-20T06:30:50Z
2023-07-20T04:31:36Z,42.805,6.029,13.3049,4.60157,2470.624,2023-7-20T06:33:54Z
2023-07-20T04:34:40Z,42.805,6.029,13.3036,4.60140,2470.614,2023-7-20T06:36:57Z
2023-07-20T04:37:43Z,42.805,6.029,13.3043,4.60156,2470.624,2023-7-20T06:40:00Z
2023-07-20T04:40:46Z,42.805,6.029,13.3038,4.60146,2470.637,2023-7-20T06:43:03Z
2023-07-20T04:43:49Z,42.805,6.029,13.3051,4.60149,2470.661,2023-7-20T06:46:06Z
2023-07-20T04:46:52Z,42.805,6.029,13.3044,4.60162,2470.624,2023-7-20T06:49:09Z
2023-07-20T04:49:55Z,42.805,6.029,13.3041,4.60158,2470.646,2023-7-20T06:52:12Z
2023-07-20T04:52:58Z,42.805,6.029,13.3037,4.60166,2470.646,2023-7-20T06:55:15Z
2023-07-20T04:56:01Z,42.805,6.029,13.3040,4.60152,2470.661,2023-7-20T06:58:18Z
2023-07-20T04:59:04Z,42.805,6.029,13.3041,4.60147,2470.646,2023-7-20T07:01:21Z
2023-07-20T05:02:07Z,42.805,6.029,13.3044,4.60178,2470.624,2023-7-20T07:04:24Z
2023-07-20T05:05:10Z,42.805,6.029,13.3057,4.60157,2470.646,2023-7-20T07:07:27Z
2023-07-20T05:08:13Z,42.805,6.029,13.3051,4.60147,2470.624,2023-7-20T07:10:31Z
2023-07-20T05:11:17Z,42.805,6.029,13.3043,4.60156,2470.637,2023-7-20T07:13:34Z
2023-07-20T05:14:20Z,42.805,6.029,13.3045,4.60146,2470.661,2023-7-20T07:16:37Z
2023-07-20T05:17:23Z,42.805,6.029,13.3038,4.60130,2470.646,2023-7-20T07:19:40Z
2023-07-20T05:20:26Z,42.805,6.029,13.3039,4.60152,2470.646,2023-7-20T07:22:43Z
2023-07-20T05:23:29Z,42.805,6.029,13.3048,4.60158,2470.67,2023-7-20T07:25:46Z
2023-07-20T05:26:32Z,42.805,6.029,13.3056,4.60161,2470.646,2023-7-20T07:28:49Z
2023-07-20T05:29:35Z,42.805,6.029,13.3043,4.60170,2470.624,2023-7-20T07:31:52Z
2023-07-20T05:32:38Z,42.805,6.029,13.3046,4.60152,2470.624,2023-7-20T07:34:55Z
2023-07-20T05:35:41Z,42.805,6.029,13.3046,4.60157,2470.646,2023-7-20T07:37:58Z
2023-07-20T05:38:44Z,42.805,6.029,13.3058,4.60167,2470.637,2023-7-20T07:41:01Z
2023-07-20T05:41:47Z,42.805,6.029,13.3043,4.60165,2470.67,2023-7-20T07:44:04Z
2023-07-20T05:44:50Z,42.805,6.029,13.3046,4.60167,2470.646,2023-7-20T07:47:08Z
2023-07-20T05:47:54Z,42.805,6.029,13.3046,4.60167,2470.646,2023-7-20T07:50:11Z
2023-07-20T05:50:57Z,42.805,6.029,13.3039,4.60172,2470.646,2023-7-20T07:53:14Z
2023-07-20T05:54:00Z,42.805,6.029,13.3041,4.60160,2470.646,2023-7-20T07:56:17Z
2023-07-20T05:57:03Z,42.805,6.029,13.3055,4.60137,2470.661,2023-7-20T07:59:20Z
2023-07-20T06:00:06Z,42.805,6.029,13.3043,4.60174,2470.646,2023-7-20T08:02:23Z
2023-07-20T06:03:09Z,42.805,6.029,13.3068,4.60165,2470.646,2023-7-20T08:05:26Z
2023-07-20T06:06:12Z,42.805,6.029,13.3043,4.60178,2470.624,2023-7-20T08:08:29Z
2023-07-20T06:09:15Z,42.805,6.029,13.3043,4.60190,2470.637,2023-7-20T08:11:32Z
2023-07-20T06:12:18Z,42.805,6.029,13.3050,4.60177,2470.684,2023-7-20T08:14:35Z
2023-07-20T06:15:21Z,42.805,6.029,13.3040,4.60174,2470.637,2023-7-20T08:17:38Z
2023-07-20T06:18:24Z,42.805,6.029,13.3060,4.60184,2470.661,2023-7-20T08:20:41Z
2023-07-20T06:21:27Z,42.805,6.029,13.3039,4.60170,2470.67,2023-7-20T08:23:45Z
2023-07-20T06:24:31Z,42.805,6.029,13.3067,4.60158,2470.646,2023-7-20T08:26:48Z
2023-07-20T06:27:34Z,42.805,6.029,13.3049,4.60143,2470.684,2023-7-20T08:29:51Z
2023-07-20T06:30:36Z,42.805,6.029,13.3046,4.60157,2470.646,2023-7-20T08:32:53Z
2023-07-20T06:33:39Z,42.805,6.029,13.3061,4.60183,2470.693,2023-7-20T08:35:56Z
2023-07-20T06:36:42Z,42.805,6.029,13.3049,4.60146,2470.684,2023-7-20T08:38:59Z
2023-07-20T06:39:45Z,42.805,6.029,13.3046,4.60179,2470.707,2023-7-20T08:42:02Z
2023-07-20T06:42:48Z,42.805,6.029,13.3046,4.60178,2470.646,2023-7-20T08:45:05Z
2023-07-20T06:45:51Z,42.805,6.029,13.3048,4.60170,2470.646,2023-7-20T08:48:08Z
2023-07-20T06:48:54Z,42.805,6.029,13.3062,4.60160,2470.67,2023-7-20T08:51:11Z
2023-07-20T06:51:57Z,42.805,6.029,13.3043,4.60155,2470.707,2023-7-20T08:54:14Z
2023-07-20T06:55:00Z,42.805,6.029,13.3048,4.60167,2470.67,2023-7-20T08:57:18Z
2023-07-20T06:58:04Z,42.805,6.029,13.3048,4.60166,2470.693,2023-7-20T09:00:21Z
2023-07-20T07:01:07Z,42.805,6.029,13.3039,4.60172,2470.646,2023-7-20T09:03:24Z
2023-07-20T07:04:10Z,42.805,6.029,13.3063,4.60164,2470.67,2023-7-20T09:06:27Z
2023-07-20T07:07:13Z,42.805,6.029,13.3053,4.60184,2470.717,2023-7-20T09:09:30Z
2023-07-20T07:10:16Z,42.805,6.029,13.3038,4.60155,2470.693,2023-7-20T09:12:33Z
2023-07-20T07:13:19Z,42.805,6.029,13.3049,4.60150,2470.707,2023-7-20T09:15:36Z
2023-07-20T07:16:22Z,42.805,6.029,13.3055,4.60122,2470.707,2023-7-20T09:18:39Z
2023-07-20T07:19:25Z,42.805,6.029,13.3049,4.60162,2470.707,2023-7-20T09:21:42Z
2023-07-20T07:22:28Z,42.805,6.029,13.3048,4.60151,2470.717,2023-7-20T09:24:45Z
2023-07-20T07:25:31Z,42.805,6.029,13.3045,4.60140,2470.693,2023-7-20T09:27:48Z
2023-07-20T07:28:34Z,42.805,6.029,13.3056,4.60149,2470.73,2023-7-20T09:30:51Z
2023-07-20T07:31:37Z,42.805,6.029,13.3048,4.60157,2470.73,2023-7-20T09:33:55Z
2023-07-20T07:34:40Z,42.805,6.029,13.3057,4.60167,2470.707,2023-7-20T09:36:58Z
2023-07-20T07:37:44Z,42.805,6.029,13.3047,4.60180,2470.693,2023-7-20T09:40:01Z
2023-07-20T07:40:47Z,42.805,6.029,13.3056,4.60183,2470.74,2023-7-20T09:43:04Z
2023-07-20T07:43:50Z,42.805,6.029,13.3043,4.60174,2470.693,2023-7-20T09:46:07Z
2023-07-20T07:46:53Z,42.805,6.029,13.3041,4.60178,2470.707,2023-7-20T09:49:10Z
2023-07-20T07:49:56Z,42.805,6.029,13.3056,4.60156,2470.707,2023-7-20T09:52:13Z
2023-07-20T07:52:59Z,42.805,6.029,13.3061,4.60165,2470.67,2023-7-20T09:55:16Z
2023-07-20T07:56:02Z,42.805,6.029,13.3069,4.60185,2470.754,2023-7-20T09:58:19Z
2023-07-20T07:59:05Z,42.805,6.029,13.3051,4.60192,2470.693,2023-7-20T10:01:22Z
2023-07-20T08:02:08Z,42.805,6.029,13.3056,4.60185,2470.693,2023-7-20T10:04:25Z
2023-07-20T08:05:11Z,42.805,6.029,13.3048,4.60150,2470.717,2023-7-20T10:07:28Z
2023-07-20T08:08:14Z,42.805,6.029,13.3041,4.60176,2470.707,2023-7-20T10:10:31Z
2023-07-20T08:11:17Z,42.805,6.029,13.3048,4.60189,2470.707,2023-7-20T10:13:35Z
2023-07-20T08:14:21Z,42.805,6.029,13.3048,4.60164,2470.707,2023-7-20T10:16:38Z
2023-07-20T08:17:24Z,42.805,6.029,13.3047,4.60178,2470.707,2023-7-20T10:19:41Z
2023-07-20T08:20:27Z,42.805,6.029,13.3061,4.60147,2470.717,2023-7-20T10:22:44Z
2023-07-20T08:23:30Z,42.805,6.029,13.3039,4.60157,2470.693,2023-7-20T10:25:47Z
2023-07-20T08:26:33Z,42.805,6.029,13.3048,4.60140,2470.717,2023-7-20T10:28:50Z
2023-07-20T08:29:36Z,42.805,6.029,13.3048,4.60170,2470.754,2023-7-20T10:31:53Z
2023-07-20T08:32:39Z,42.805,6.029,13.3051,4.60162,2470.73,2023-7-20T10:34:56Z
2023-07-20T08:35:42Z,42.805,6.029,13.3060,4.60160,2470.717,2023-7-20T10:37:59Z
2023-07-20T08:38:45Z,42.805,6.029,13.3051,4.60188,2470.74,2023-7-20T10:41:02Z
2023-07-20T08:41:48Z,42.805,6.029,13.3036,4.60143,2470.717,2023-7-20T10:44:05Z
2023-07-20T08:44:51Z,42.805,6.029,13.3046,4.60132,2470.717,2023-7-20T10:47:08Z
2023-07-20T08:47:54Z,42.805,6.029,13.3065,4.60189,2470.73,2023-7-20T10:50:11Z
2023-07-20T08:50:57Z,42.805,6.029,13.3047,4.60172,2470.684,2023-7-20T10:53:14Z
2023-07-20T08:54:00Z,42.805,6.029,13.3046,4.60160,2470.693,2023-7-20T10:56:17Z
2023-07-20T08:57:03Z,42.805,6.029,13.3056,4.60170,2470.73,2023-7-20T10:59:21Z
2023-07-20T09:00:07Z,42.805,6.029,13.3064,4.60168,2470.73,2023-7-20T11:02:24Z
2023-07-20T09:03:10Z,42.805,6.029,13.3048,4.60166,2470.717,2023-7-20T11:05:27Z
2023-07-20T09:06:13Z,42.805,6.029,13.3051,4.60144,2470.717,2023-7-20T11:08:30Z
2023-07-20T09:09:16Z,42.805,6.029,13.3052,4.60169,2470.707,2023-7-20T11:11:33Z
2023-07-20T09:12:19Z,42.805,6.029,13.3046,4.60129,2470.693,2023-7-20T11:14:36Z
2023-07-20T09:15:22Z,42.805,6.029,13.3058,4.60143,2470.707,2023-7-20T11:17:39Z
2023-07-20T09:18:25Z,42.805,6.029,13.3047,4.60152,2470.707,2023-7-20T11:20:42Z
2023-07-20T09:21:28Z,42.805,6.029,13.3054,4.60160,2470.693,2023-7-20T11:23:45Z
2023-07-20T09:24:31Z,42.805,6.029,13.3052,4.60170,2470.693,2023-7-20T11:26:48Z
2023-07-20T09:27:34Z,42.805,6.029,13.3050,4.60132,2470.693,2023-7-20T11:29:51Z
2023-07-20T09:30:37Z,42.805,6.029,13.3047,4.60144,2470.707,2023-7-20T11:32:54Z
2023-07-20T09:33:40Z,42.805,6.029,13.3053,4.60171,2470.707,2023-7-20T11:35:57Z
2023-07-20T09:36:43Z,42.805,6.029,13.3054,4.60167,2470.73,2023-7-20T11:39:01Z
2023-07-20T09:39:47Z,42.805,6.029,13.3050,4.60158,2470.661,2023-7-20T11:42:04Z
2023-07-20T09:42:50Z,42.805,6.029,13.3047,4.60149,2470.717,2023-7-20T11:45:07Z
2023-07-20T09:45:53Z,42.805,6.029,13.3043,4.60182,2470.73,2023-7-20T11:48:10Z
2023-07-20T09:48:56Z,42.805,6.029,13.3046,4.60158,2470.73,2023-7-20T11:51:13Z
2023-07-20T09:51:59Z,42.805,6.029,13.3043,4.60174,2470.67,2023-7-20T11:54:16Z
2023-07-20T09:55:02Z,42.805,6.029,13.3075,4.60155,2470.707,2023-7-20T11:57:19Z
2023-07-20T09:58:05Z,42.805,6.029,13.3046,4.60169,2470.73,2023-7-20T12:00:22Z
2023-07-20T10:01:08Z,42.805,6.029,13.3047,4.60160,2470.703,2023-7-20T12:03:25Z
2023-07-20T10:04:11Z,42.805,6.029,13.3051,4.60175,2470.707,2023-7-20T12:06:28Z
2023-07-20T10:07:14Z,42.805,6.029,13.3061,4.60188,2470.684,2023-7-20T12:09:31Z
2023-07-20T10:10:17Z,42.805,6.029,13.3043,4.60172,2470.693,2023-7-20T12:12:34Z
2023-07-20T10:13:20Z,42.805,6.029,13.3071,4.60171,2470.684,2023-7-20T12:15:38Z
2023-07-20T10:16:24Z,42.805,6.029,13.3045,4.60153,2470.717,2023-7-20T12:18:41Z
2023-07-20T10:19:27Z,42.805,6.029,13.3047,4.60158,2470.73,2023-7-20T12:21:44Z
2023-07-20T10:22:30Z,42.805,6.029,13.3046,4.60147,2470.646,2023-7-20T12:24:47Z
2023-07-20T10:25:33Z,42.805,6.029,13.3051,4.60165,2470.67,2023-7-20T12:27:50Z
2023-07-20T10:28:36Z,42.805,6.029,13.3046,4.60154,2470.684,2023-7-20T12:30:53Z
2023-07-20T10:31:37Z,42.805,6.029,13.3053,4.60182,2470.707,2023-7-20T12:33:54Z
2023-07-20T10:34:40Z,42.805,6.029,13.3056,4.60179,2470.646,2023-7-20T12:36:58Z
2023-07-20T10:37:44Z,42.805,6.029,13.3058,4.60174,2470.707,2023-7-20T12:40:01Z
2023-07-20T10:40:47Z,42.805,6.029,13.3056,4.60182,2470.684,2023-7-20T12:43:04Z
2023-07-20T10:43:50Z,42.805,6.029,13.3063,4.60165,2470.684,2023-7-20T12:46:07Z
2023-07-20T10:46:53Z,42.805,6.029,13.3048,4.60131,2470.637,2023-7-20T12:49:10Z
2023-07-20T10:49:56Z,42.805,6.029,13.3047,4.60170,2470.661,2023-7-20T12:52:13Z
2023-07-20T10:52:59Z,42.805,6.029,13.3075,4.60167,2470.661,2023-7-20T12:55:16Z
2023-07-20T10:56:02Z,42.805,6.029,13.3042,4.60150,2470.661,2023-7-20T12:58:19Z
2023-07-20T10:59:05Z,42.805,6.029,13.3073,4.60160,2470.684,2023-7-20T13:01:22Z
2023-07-20T11:02:08Z,42.805,6.029,13.3054,4.60148,2470.646,2023-7-20T13:04:25Z
2023-07-20T11:05:11Z,42.805,6.029,13.3038,4.60147,2470.646,2023-7-20T13:07:28Z
2023-07-20T11:08:14Z,42.805,6.029,13.3044,4.60146,2470.646,2023-7-20T13:10:31Z
2023-07-20T11:11:17Z,42.805,6.029,13.3051,4.60173,2470.624,2023-7-20T13:13:35Z
2023-07-20T11:14:21Z,42.805,6.029,13.3051,4.60167,2470.646,2023-7-20T13:16:38Z
2023-07-20T11:17:24Z,42.805,6.029,13.3058,4.60174,2470.637,2023-7-20T13:19:41Z
2023-07-20T11:20:27Z,42.805,6.029,13.3051,4.60160,2470.637,2023-7-20T13:22:44Z
2023-07-20T11:23:30Z,42.805,6.029,13.3056,4.60147,2470.646,2023-7-20T13:25:47Z
2023-07-20T11:26:33Z,42.805,6.029,13.3051,4.60151,2470.637,2023-7-20T13:28:50Z
2023-07-20T11:29:36Z,42.805,6.029,13.3046,4.60143,2470.637,2023-7-20T13:31:53Z
2023-07-20T11:32:39Z,42.805,6.029,13.3036,4.60150,2470.614,2023-7-20T13:34:56Z
2023-07-20T11:35:42Z,42.805,6.029,13.3044,4.60156,2470.637,2023-7-20T13:37:59Z
2023-07-20T11:38:45Z,42.805,6.029,13.3043,4.60125,2470.646,2023-7-20T13:41:02Z
2023-07-20T11:41:48Z,42.805,6.029,13.3043,4.60146,2470.624,2023-7-20T13:44:05Z
2023-07-20T11:44:51Z,42.805,6.029,13.3069,4.60140,2470.614,2023-7-20T13:47:09Z
2023-07-20T11:47:55Z,42.805,6.029,13.3063,4.60167,2470.624,2023-7-20T13:50:12Z
2023-07-20T11:50:58Z,42.805,6.029,13.3046,4.60186,2470.614,2023-7-20T13:53:15Z
2023-07-20T11:54:01Z,42.805,6.029,13.3058,4.60107,2470.6,2023-7-20T13:56:18Z
2023-07-20T11:57:04Z,42.805,6.029,13.3041,4.60144,2470.614,2023-7-20T13:59:21Z
2023-07-20T12:00:07Z,42.805,6.029,13.3036,4.60146,2470.637,2023-7-20T14:02:24Z
2023-07-20T12:03:10Z,42.805,6.029,13.3050,4.60148,2470.6,2023-7-20T14:05:27Z
2023-07-20T12:06:13Z,42.805,6.029,13.3046,4.60172,2470.614,2023-7-20T14:08:30Z
2023-07-20T12:09:16Z,42.805,6.029,13.3046,4.60169,2470.6,2023-7-20T14:11:33Z
2023-07-20T12:12:19Z,42.805,6.029,13.3046,4.60156,2470.577,2023-7-20T14:14:36Z
2023-07-20T12:15:22Z,42.805,6.029,13.3058,4.60175,2470.591,2023-7-20T14:17:39Z
2023-07-20T12:18:25Z,42.805,6.029,13.3053,4.60119,2470.591,2023-7-20T14:20:42Z
2023-07-20T12:21:28Z,42.805,6.029,13.3051,4.60161,2470.6,2023-7-20T14:23:46Z
2023-07-20T12:24:32Z,42.805,6.029,13.3048,4.60160,2470.577,2023-7-20T14:26:49Z
2023-07-20T12:27:35Z,42.805,6.029,13.3041,4.60167,2470.6,2023-7-20T14:29:52Z
2023-07-20T12:30:38Z,42.805,6.029,13.3061,4.60170,2470.591,2023-7-20T14:32:55Z
2023-07-20T12:33:41Z,42.805,6.029,13.3051,4.60132,2470.577,2023-7-20T14:35:58Z
2023-07-20T12:36:44Z,42.805,6.029,13.3045,4.60150,2470.591,2023-7-20T14:39:01Z
2023-07-20T12:39:47Z,42.805,6.029,13.3067,4.60150,2470.591,2023-7-20T14:42:04Z
2023-07-20T12:42:50Z,42.805,6.029,13.3044,4.60167,2470.614,2023-7-20T14:45:07Z
2023-07-20T12:45:53Z,42.805,6.029,13.3072,4.60135,2470.553,2023-7-20T14:48:10Z
2023-07-20T12:48:56Z,42.805,6.029,13.3051,4.60147,2470.553,2023-7-20T14:51:13Z
2023-07-20T12:51:59Z,42.805,6.029,13.3048,4.60140,2470.614,2023-7-20T14:54:16Z
2023-07-20T12:55:02Z,42.805,6.029,13.3046,4.60167,2470.591,2023-7-20T14:57:20Z
2023-07-20T12:58:06Z,42.805,6.029,13.3044,4.60140,2470.577,2023-7-20T15:00:23Z
2023-07-20T13:01:09Z,42.805,6.029,13.3041,4.60132,2470.591,2023-7-20T15:03:26Z
2023-07-20T13:04:12Z,42.805,6.029,13.3038,4.60123,2470.628,2023-7-20T15:06:29Z
2023-07-20T13:07:15Z,42.805,6.029,13.3040,4.60125,2470.553,2023-7-20T15:09:32Z
2023-07-20T13:10:18Z,42.805,6.029,13.3039,4.60155,2470.567,2023-7-20T15:12:35Z
2023-07-20T13:13:21Z,42.805,6.029,13.3046,4.60135,2470.577,2023-7-20T15:15:38Z
2023-07-20T13:16:24Z,42.805,6.029,13.3039,4.60152,2470.567,2023-7-20T15:18:41Z
2023-07-20T13:19:27Z,42.805,6.029,13.3043,4.60165,2470.567,2023-7-20T15:21:44Z
2023-07-20T13:22:30Z,42.805,6.029,13.3041,4.60170,2470.553,2023-7-20T15:24:47Z
2023-07-20T13:25:33Z,42.805,6.029,13.3046,4.60136,2470.567,2023-7-20T15:27:50Z
2023-07-20T13:28:36Z,42.805,6.029,13.3045,4.60142,2470.53,2023-7-20T15:30:53Z
2023-07-20T13:31:39Z,42.805,6.029,13.3043,4.60163,2470.567,2023-7-20T15:33:57Z
2023-07-20T13:34:43Z,42.805,6.029,13.3046,4.60133,2470.577,2023-7-20T15:37:00Z
2023-07-20T13:37:46Z,42.805,6.029,13.3046,4.60157,2470.553,2023-7-20T15:40:03Z
2023-07-20T13:40:49Z,42.805,6.029,13.3050,4.60155,2470.567,2023-7-20T15:43:06Z
2023-07-20T13:43:52Z,42.805,6.029,13.3040,4.60141,2470.544,2023-7-20T15:46:09Z
2023-07-20T13:46:55Z,42.805,6.029,13.3042,4.60157,2470.591,2023-7-20T15:49:12Z
2023-07-20T13:49:58Z,42.805,6.029,13.3043,4.60164,2470.577,2023-7-20T15:52:15Z
2023-07-20T13:53:01Z,42.805,6.029,13.3047,4.60128,2470.591,2023-7-20T15:55:18Z
2023-07-20T13:56:04Z,42.805,6.029,13.3046,4.60153,2470.53,2023-7-20T15:58:21Z
2023-07-20T13:59:07Z,42.805,6.029,13.3041,4.60153,2470.553,2023-7-20T16:01:24Z
2023-07-20T14:02:10Z,42.805,6.029,13.3036,4.60134,2470.567,2023-7-20T16:04:27Z
2023-07-20T14:05:13Z,42.805,6.029,13.3046,4.60152,2470.53,2023-7-20T16:07:31Z
2023-07-20T14:08:16Z,42.805,6.029,13.3045,4.60173,2470.544,2023-7-20T16:10:34Z
2023-07-20T14:11:20Z,42.805,6.029,13.3054,4.60148,2470.53,2023-7-20T16:13:37Z
2023-07-20T14:14:23Z,42.805,6.029,13.3052,4.60149,2470.53,2023-7-20T16:16:40Z
2023-07-20T14:17:26Z,42.805,6.029,13.3043,4.60144,2470.53,2023-7-20T16:19:43Z
2023-07-20T14:20:29Z,42.805,6.029,13.3040,4.60159,2470.591,2023-7-20T16:22:46Z
2023-07-20T14:23:32Z,42.805,6.029,13.3051,4.60139,2470.567,2023-7-20T16:25:49Z
2023-07-20T14:26:35Z,42.805,6.029,13.3061,4.60160,2470.53,2023-7-20T16:28:52Z
2023-07-20T14:29:38Z,42.805,6.029,13.3041,4.60140,2470.553,2023-7-20T16:31:55Z
2023-07-20T14:32:40Z,42.805,6.029,13.3042,4.60136,2470.567,2023-7-20T16:34:57Z
2023-07-20T14:35:43Z,42.805,6.029,13.3051,4.60158,2470.544,2023-7-20T16:38:00Z
2023-07-20T14:38:46Z,42.805,6.029,13.3043,4.60150,2470.544,2023-7-20T16:41:03Z
2023-07-20T14:41:49Z,42.805,6.029,13.3043,4.60140,2470.567,2023-7-20T16:44:06Z
2023-07-20T14:44:52Z,42.805,6.029,13.3043,4.60183,2470.544,2023-7-20T16:47:09Z
2023-07-20T14:47:55Z,42.805,6.029,13.3038,4.60188,2470.553,2023-7-20T16:50:13Z
2023-07-20T14:50:59Z,42.805,6.029,13.3044,4.60168,2470.567,2023-7-20T16:53:16Z
2023-07-20T14:54:02Z,42.805,6.029,13.3048,4.60162,2470.553,2023-7-20T16:56:19Z
2023-07-20T14:57:05Z,42.805,6.029,13.3063,4.60155,2470.53,2023-7-20T16:59:22Z
2023-07-20T15:00:08Z,42.805,6.029,13.3048,4.60128,2470.591,2023-7-20T17:02:25Z
2023-07-20T15:03:11Z,42.805,6.029,13.3043,4.60157,2470.53,2023-7-20T17:05:28Z
2023-07-20T15:06:14Z,42.805,6.029,13.3038,4.60146,2470.567,2023-7-20T17:08:31Z
2023-07-20T15:09:17Z,42.805,6.029,13.3041,4.60188,2470.507,2023-7-20T17:11:34Z